Location: Newark
(43.6486°N, 79.3853°W)
Time: 16:12:35
(UTC+00:00)

STARLINK-1308 - Pass Details

Date: 07 April 2020
Orbit: 548 x 550 km, 53.0° (Epoch: 03 June)

Event Time Altitude Azimuth Distance (km) Brightness Sun altitude
Exits shadow 08:11:32 20° 340° (NNW) 1,252 5.6 -26.1°
Drops below altitude 10° 08:15:25 10° 47° (NE) 1,774 7.2 -25.6°
Enters shadow 09:14:43 -67° 270° (W) 12,303 10.4 -16.7°
Maximum altitude 09:52:32 28° 18° (NNE) 1,001 5.4 -10.4°
